Location: Kumla
(59.1265°N, 15.1401°E)
Time: 09:06:06
(UTC+01:00)

Transit 2A - Pass Details

Date: 08 December 2023
Orbit: 600 x 953 km, 66.7° (Epoch: 22 February)

Event Time Altitude Azimuth Distance (km) Brightness Sun altitude
Rises 15:58:02 0° 224° (SW) 3,102 11.3 -6.2°
Reaches altitude 10° 16:00:27 10° 223° (SW) 2,134 10.0 -6.4°
Maximum altitude 16:05:15 82° 137° (SE) 659 5.7 -6.9°
Drops below altitude 10° 16:09:43 10° 50° (NE) 1,992 7.5 -7.4°
Enters shadow 16:09:53 - 50° (NE) 2,057 7.6 -7.4°
Sets 16:11:55 0° 50° (NE) 2,879 - -7.6°
